Location: Julian California
(33.0790°N, 116.6010°W)
Time: 12:51:16
(UTC-07:00)

ERS-2 - Pass Details

Date: 12 July 2018
Orbit: 497 x 503 km, 98.5° (Epoch: 16 July)

Event Time Altitude Azimuth Distance (km) Brightness Sun altitude
Exits shadow 21:39:16 19° 201° (SSW) 1,231 3.9 -18.4°
Maximum altitude 21:41:26 38° 260° (W) 770 3.3 -18.7°
Drops below altitude 10° 21:44:51 10° 330° (NNW) 1,697 5.9 -19.2°
Sets 21:47:02 0° 338° (NNW) 2,584 6.9 -19.5°
